TIMESTAMP,CO2_1_1_1,H2O_1_1_1,TAU_1_1_1,TAU_SSITC_TEST_1_1_1,H_1_1_1,H_SSITC_TEST_1_1_1,LE_1_1_1,LE_SSITC_TEST_1_1_1,FC_1_1_1,FC_SSITC_TEST_1_1_1,WD_0_0_1,WS_0_0_1,WS_MAX_0_0_1,U_SIGMA_0_0_1,V_SIGMA_0_0_1,W_SIGMA_0_0_1,USTAR_0_0_1,MO_LENGTH_0_0_1,ZL_0_0_1,FETCH_MAX_0_0_1,FETCH_70_0_0_1,FETCH_80_0_0_1,FETCH_90_0_0_1,PA_0_0_1,RH_0_0_1,TA_0_0_1,VPD_0_0_1,T_SONIC_0_0_1,T_SONIC_SIGMA_0_0_1
[yyyymmddHHMMSS],[mmolCO2 mol-1],[mmolH2O mol-1],[kg m-1 s-2],[#],[W m-2],[#],[W m-2],[#],[umolCO2 m-2 s-1],[#],[Decimal degrees],[m s-1],[m s-1],[m s-1],[m s-1],[m s-1],[m s-1],[m],[#],[m],[m],[m],[m],[kPa],[%],[deg C],[hPa],[deg C],[deg C]
20220415003000,420.64480047913980,5.0092017247596550,1.0705202255017863,0,-9.1511290823474951,0,5.1125691015808137,1,0.81449927657197785,0,186.38203857994864,4.7654843720664459,15.302659376043778,2.2232160621889951,1.7422028346231062,1.3478814333133093,0.95134972706716681,7724.3261125933723,2.4597615019157863E-003,94.755778766961839,173.24378439162658,207.32856283684848,259.55075816947078,92.001511610243071,92.120689655172413,-2.6827586206896399,0.39428566665805875,-3.0147807956271322,9.7762549265395973E-002
20220415010000,420.73267541959905,4.9910719974025914,0.95285270159517832,0,-21.507957184348964,0,4.3903159723679215,1,1.0180778359616631,0,195.93229659050354,4.7161149151449075,14.541710827756443,2.2676672098080508,1.7974560052347812,1.3616311865543780,0.89732629494243410,2758.7366802879660,6.8872104161882960E-003,89.694873852027825,163.99083611429097,196.25514698484284,245.68815554208652,92.044493118489584,91.849999999999994,-2.6856666666666911,0.40774305499773617,-2.9941434716118351,8.6332054235405270E-002
20220415013000,420.74012028647371,4.9759609962868971,1.0227270804199207,0,-20.130709218723261,0,-0.35951294920873472,2,0.68096127857840549,0,198.04215399095668,3.9171630122997625,13.122610816197332,2.0177565959027324,1.5738754048259271,1.2024614003584677,0.92918110357927197,3273.8699836709602,5.8035291855712224E-003,101.87750014312023,186.26456242377975,222.91110858822381,279.05825635804700,92.092851359809018,92.486666666666665,-2.8123333333333562,0.37236846651790245,-3.1213013865152561,8.0964253901054661E-002
20220415020000,420.71437839641396,4.9847648942315530,1.1462442387262968,0,-20.997823023810849,0,2.0508690289270586,1,1.2343445627137859,0,192.26385757745066,4.2563389438769388,14.305721070276535,2.2385673777701331,1.8453086293819811,1.2991097666019142,0.98347192938718286,3722.4158599886323,5.1042120801779584E-003,100.21847652281267,183.23133812741219,219.28111380176674,274.51393363625408,92.120604570312494,92.956666666666663,-2.8526666666666642,0.34802916443173898,-3.1418341827392169,8.6403216704860092E-002
20220415023000,420.49181190262624,4.8484336116691207,1.4917448922378784,0,-3.8558084536611537,2,5.5585400495170587,2,1.4554910000282546,0,200.79642744134421,4.5528201969814308,13.287888569571312,2.3698751529437851,1.7108020028540565,1.3928003955994759,1.1212761099343993,30052.576401219030,6.3222532891487129E-004,105.27223658373711,192.47122333288397,230.33889649310646,288.35696540158295,92.167167445312501,91.616666666666660,-3.0233333333333121,0.40901234971056794,-3.3689153857760630,0.11829844571532212
20220415030000,420.36377446684145,4.7579088958736566,1.2608280692291924,0,-20.996273832593268,0,-1.4901658821650188,2,0.85170992648132304,0,203.94834577302410,4.3419355534909263,12.634624731114313,2.1589889876189301,1.7828578932179997,1.3094493303713604,1.0301873541958533,4281.5920655945802,4.4376016465177866E-003,103.35153067939079,188.95956036200963,226.13633280820730,283.09585436243771,92.210823217498060,91.349999999999994,-3.2306666666666501,0.41554882268129917,-3.5574273957022911,7.6399140653329478E-002
20220415033000,420.19039324973886,4.6105143777604329,0.88687835025694817,1,-41.764076166218381,1,14.258943458660413,1,1.4546741341973108,1,202.18129187196817,4.6107812660569740,13.941306768742150,2.0715777213038442,1.9228605112439860,1.4249837491331232,0.86383698327185354,1269.2348399131661,1.4969648958974270E-002,83.898154022700737,153.39258349731440,183.57174543380961,229.81004186737275,92.229028069661467,88.813333333333333,-3.2723333333333358,0.53574240027404874,-3.5894626854790204,9.5939612165175533E-002
20220415040000,419.79931402200572,4.2161843844389448,1.5880144880274965,0,-39.084285093778753,0,23.712738566543820,0,1.3095396935053707,0,219.13956922578083,5.3971937676366570,15.675282101878148,2.5099074175711320,1.9838030989162649,1.4695398672645312,1.1551178943795763,3243.5077714225204,5.8578555499088818E-003,103.27872103029958,188.82644110202435,225.97702305313831,282.89641745347461,92.263993148220493,82.662666666666667,-3.5033333333333303,0.81609592493548633,-3.8985895250108342,0.18442992136154537
20220415043000,419.65427876649011,3.9432630727994322,1.3294348494590109,0,-59.850332831584957,0,8.4898559019922804,1,0.76350857378916881,0,214.59498570267067,5.1935314658835958,15.871847340113542,2.4668733276955099,1.8466313583748568,1.3482484215226362,1.0558303858491738,1617.7810542753818,1.1744481708317609E-002,102.97084782111197,188.26355068450553,225.30338698758692,282.05310503596775,92.289851447865715,79.929666666666662,-3.9440000000000168,0.91405591122295848,-4.3393485617563101,0.15422619265840204
20220415050000,419.84921096818238,4.0379364335772108,1.2909134912303217,0,-20.687714970677131,1,1.5222278084571965,2,0.62734880066167209,1,214.42527042522249,4.6408546350297275,17.337131670771491,2.3122321165937576,1.8353353598024971,1.3169325751489380,1.0397524067022930,4470.4537617969545,4.2501278421371511E-003,103.64491864181618,189.49596712861461,226.77827470763367,283.89948944492261,92.309290938151037,83.726666666666674,-4.2429999999999950,0.72465966871910270,-4.6716252483790868,0.24353428309078570
20220415053000,420.07879549316442,4.1271225437006658,1.0602170237200068,0,-38.283782765561682,1,5.6317034574684746,0,0.94804000050848636,0,208.45720791190166,4.1516494831199058,11.685147749102214,2.0016037385133063,1.6221903368096418,1.2313986300594242,0.94163270604542793,1794.4988935456583,1.0587914023429056E-002,101.02786950589649,184.71116664314127,221.05209058161782,276.73098641287800,92.319562457899309,87.853333333333339,-4.5899999999999750,0.52693427722819253,-4.9876197221543634,0.13465802308254363
20220415060000,420.09677342371685,3.9271155771795558,0.64312563960758051,0,-38.008212218412730,1,-14.353142054882280,2,0.54015320294320779,0,209.75402615075762,4.6474144583346986,13.038858456335360,2.0697193998545500,1.5619858229742842,1.1174250471920129,0.73269890750264366,851.54960288271627,2.2312264530075607E-002,89.334788486167369,163.33248522216090,195.46726911212718,244.70182593843603,92.323576624782987,86.626666666666665,-5.0603333333333467,0.55987470840916675,-5.4682907808092409,0.17113809895716095
20220415063000,419.99644417194122,3.5686486392975301,0.93314321212828977,0,-62.423503650546195,0,11.919334271634268,0,1.0053140695433866,0,208.90333485179579,4.3318919029299909,12.360456908991047,1.9461187092835033,1.5044424805698133,1.1475623106371375,0.88195696231112430,904.21710232997509,2.1012652770049409E-002,101.43592482355035,185.45722190638114,221.94492818654294,277.84871314627986,92.321919432508196,80.799999999999997,-5.4043333333333408,0.78309592282576723,-5.7913575380629823,0.15899441662888719
20220415070000,420.08590996175479,3.4521161302170698,0.68326236535979534,0,-56.676261334225991,0,3.9181555065510683,0,0.74090474612179802,0,216.28004907022250,3.8755383446634450,11.548335320863362,1.5898218784962002,1.3502704069564935,1.0432279049144737,0.75421571094906281,622.86712307243897,3.0504098380209923E-002,96.593522405730724,176.60376588156785,211.34960252906154,264.58462271019363,92.333997825954867,79.901666666666671,-5.6920000000000073,0.80198772768693627,-6.1098814841376452,0.15498225156042053
20220415073000,420.11011990793543,3.4262126047245047,0.46556267844251303,0,-34.827180385507681,0,5.9488039946115752,0,0.69405584734727410,0,216.76425615093274,3.3974159943866837,9.3221881249740317,1.4324748727554164,1.1240315367224787,0.84381344370049394,0.62235358638319160,569.49512482719956,3.3362884371951597E-002,98.149367402870681,179.44834674765096,214.75383930967251,268.84632319808674,92.330876427951381,80.491333333333330,-5.8876666666666893,0.76693085844054676,-6.2817578464084249,0.12782500976177108
20220415080000,419.98517257434207,3.3997825458918101,1.0190003017130775,0,-38.453909338899848,0,10.717976731120004,0,1.1412106450036290,0,211.86985530609925,4.1994136912159199,13.616761567353015,1.9532446106863326,1.5352443090896435,1.2116817392887234,0.92063270214591575,1669.4414319053562,1.1381052151266571E-002,100.51090133626195,183.76598395050823,219.92094830156412,275.31493050447665,92.318370871093748,80.432666666666663,-5.9813333333333389,0.76375651339782513,-6.4189441248574894,0.14939278405448383
20220415083000,420.09046265639853,3.4539220943881199,0.61610197384501231,0,-24.384245338870482,0,6.3204133256577775,0,0.86324972213401963,0,210.58009276739284,3.7354393210734562,10.953039421287116,1.6080904723106642,1.4066595908239075,1.0154334222853776,0.71534602596875974,1235.1851772873483,1.5382308943932476E-002,94.612097750958469,172.98108966966271,207.01418434782587,259.15719360672313,92.329733670021398,83.959999999999994,-6.3343333333333476,0.60940011754904333,-6.7786679290297798,0.10442931908572704
20220415090000,420.07666738127926,3.4975438868412478,0.59100930433757293,0,-16.164216508071483,0,-2.5750752796832086,2,0.58068960198015906,0,215.21649332887648,4.5178177587820318,13.060733107003655,1.9484850224388022,1.6768241675132176,1.1304428773927120,0.70042282034978942,1749.1873165734223,1.0862187153986531E-002,85.377656963504464,156.09758673636483,186.80894344348582,233.86262963559719,92.334150260387730,85.989999999999995,-6.4816666666666833,0.52629857615489639,-6.9365981691066736,8.8792284369057409E-002
20220415093000,420.14137361070067,3.4309116877049344,0.62364959417079635,0,-12.060870879762321,1,-8.3731759924496405,2,0.24275021661851195,2,216.56126495270814,3.6808735108326345,13.244110181036227,1.6495544783676177,1.4232444911480837,1.0264841279202521,0.71899983563246772,2536.1659599341533,7.4916233007453889E-003,94.179448277766568,172.19006844619571,206.06753397297535,257.97209967103026,92.353737054253486,86.406666666666666,-6.7923333333333176,0.49860795999237328,-7.2514994650946392,9.2584407880195688E-002
20220415100000,420.10335103026699,3.3069592738760640,0.79835829837981387,0,-18.813682344529052,0,9.5067537571897347,1,0.62262196459821839,0,218.54237474783093,4.0984118869259616,10.792614872877220,1.7401216780928859,1.4220331664955888,0.99881704774827929,0.81327689317718099,2353.3204760476929,8.0736985010684721E-003,106.23237463085448,194.22666190333868,232.43970811667396,290.98693226291340,92.377112221394540,83.730000000000004,-6.8583333333333485,0.59376715346783326,-7.3113065492061651,9.4562255427838832E-002
20220415103000,420.18955201813566,3.1603236997750273,0.58824646658422897,0,-25.384513948912964,0,12.025608130091696,0,0.78879924392765721,0,217.06534714296643,3.2697870554888997,10.362690245668114,1.6210904772023642,1.1404655299907833,0.87121518916342300,0.69777875120513944,1101.6949565204127,1.7246153200164857E-002,104.84041735228212,191.68172005610407,229.39406271275141,287.17414562663350,92.391511530815976,81.213333333333338,-7.0489999999999782,0.67562002469919213,-7.5179945483737356,8.2239840126408878E-002
20220415110000,420.32376426671050,3.1330487666288360,0.80215448311390669,0,-21.680061500987723,0,10.564117634475259,0,0.82593073858442334,0,211.35313922551302,3.7441377540531464,12.962514207149438,1.8055679348726659,1.3323722807776057,1.0288244589526920,0.81440356033128058,2051.0964137576043,9.2633383163066626E-003,103.86126462525202,189.89151658634776,227.25164638379908,284.49209461115521,92.407429840494800,81.967666666666673,-7.2789999999999964,0.63708866724072610,-7.7671635886297850,0.11414683250023409
20220415113000,420.18796883023447,2.8950357747154243,0.70850877698975823,0,-29.250697435474503,0,17.090422641033701,0,0.82180491381911414,0,218.24854794687440,4.0114806783963139,10.833386357545519,1.6376319135748429,1.3453318559412291,0.99137511188939964,0.76486263456608905,1259.5732943387229,1.5084473516068802E-002,101.74925694762688,186.03009296134852,222.63050852602990,278.70697837739493,92.436985673394105,77.290999999999997,-7.5369999999999777,0.78647563545274812,-8.0413825556436223,0.15768578613383891
20220415120000,420.22699670334049,2.9149506886459218,0.80592483111452329,0,-9.1571542722052754,0,7.0930364298582758,0,0.65256808796411137,0,218.30045126460544,3.8192939696271293,10.729870658535756,1.7753936321945605,1.3075872207659649,0.99772867341738924,0.81511653440198051,4870.9570689090397,3.9006707986148350E-003,106.51743485824674,194.74784291430822,233.06342867531694,291.76775638896049,92.468680418185755,79.832666666666668,-7.8616666666666788,0.68109892032140462,-8.3934298884073542,0.11183642612232925
20220415123000,420.25335513990518,3.0472230647257352,0.80771644618922289,0,10.405828583309132,0,6.5856808624688146,0,0.62926366690272817,0,224.28077564631323,3.9159771388180111,10.258413051404345,1.6641575034815115,1.3578604238812932,1.0208311021592873,0.81574137495745624,-4297.0023492445735,-4.4216871334362340E-003,104.64868550377770,191.33117308730127,228.97454752203953,286.64896238934574,92.486728598958337,84.409999999999997,-8.0056666666666843,0.52065777620694809,-8.5533436940510796,5.3415571883304085E-002
20220415130000,420.15848386706722,3.0398480837583661,0.88671751794142029,0,22.662728362818257,0,18.020292085226615,1,0.97667992787097835,0,230.08037155546367,3.9628944850825705,14.482154406771038,1.8030842774735603,1.5185387716224072,1.1094861944319110,0.85478678314030732,-2270.4724784213918,-8.3683022721377665E-003,101.63507604921641,185.82133386292438,222.38067720303391,278.39421920706724,92.507705790581610,83.493333333333339,-7.8933333333333167,0.55610122465445222,-8.4614634229871513,5.9566367365598102E-002
20220415133000,420.01649239126613,2.9887700701673952,0.89423798859073067,0,45.512901726749305,0,11.232870574201300,0,0.77029773500991083,0,234.96459902026044,4.2487625713811470,12.073657386862136,1.9284316011416318,1.5076998718117991,1.1061378140087845,0.85860388216769790,-1145.9187749473876,-1.6580581813813413E-002,102.24493111918017,186.93634343411668,223.71505888233304,280.06470672605934,92.524889663628485,80.980000000000004,-7.7153333333333194,0.64968120174763277,-8.3522002614338930,0.11116360849995272
20220415140000,419.98513788940556,2.9205384951121598,1.0926132671239455,0,47.386637935955548,0,26.628784780786557,0,0.63076907310346153,0,243.72342363900185,4.6717373412367689,12.855223960980592,2.1386470734384280,1.9849303944628207,1.1598445376012403,0.94904274638300945,-1486.5379446067436,-1.2781375725344405E-002,106.65069599422654,194.99148677233873,233.35500814586982,292.13277928601400,92.545556175812294,78.846999999999994,-7.6659999999999968,0.72530685092872660,-8.3820099088915754,0.24543632247892805
20220415143000,420.07168189664219,2.9251765769624756,1.2393916541345658,0,118.14645573532532,0,-1.7201006831039429,2,-0.34021542910168950,2,257.28307448690100,4.4474636002620862,12.945070166609328,2.1374518972565295,1.6988544969446191,1.2249715962966021,1.0090284976869204,-716.77100498203072,-2.6507768684750754E-002,107.22025369327980,196.03281989731937,234.60121793628051,293.69288606297482,92.581106823784722,84.191333333333333,-8.4843333333333248,0.50864969661332793,-9.1876507687039179,0.32632808395671020
20220415150000,419.49034086597334,2.4917209449604303,1.5268743011949211,0,98.058570685347902,0,92.985586517274001,1,2.3055764546791702,1,241.31285583649694,5.6524517481146601,16.353488922586028,2.6560576953161932,1.9865311968084465,1.3153268418683344,1.1206256986530332,-1183.3639469206848,-1.6055922651219218E-002,110.15302183085790,201.39485541123531,241.01820496345877,301.72619235362049,92.628625548177084,69.033333333333331,-7.9879999999999995,1.0356111486585602,-8.8088419197929966,0.21021882461400382
20220415153000,419.34749098397492,2.3388857843257158,1.1281209791178206,0,107.48631022927255,0,33.633229775141302,0,0.82235130549299218,0,234.18891856539233,5.6150021861492858,14.161734254656029,2.2720826884622305,1.8912813802689721,1.3300560327786186,0.96283936561296024,-685.05133975861065,-2.7735147568202653E-002,96.694555288861949,176.78848621471710,211.57066558960980,264.86136742970302,92.689327547743062,65.014666666666670,-8.0223333333333358,1.1668899537779425,-8.9048809017605208,0.21582366762823760
20220415160000,419.47510685893945,2.3609639707028411,1.3547580493456099,0,108.91000463709956,0,46.370954547746621,0,0.56644139271508576,0,235.38847321261201,5.2053872524708291,12.898620889597813,2.1288340596823878,1.7658676141024237,1.3072488654280578,1.0545498210704174,-888.65740042035861,-2.1380568024316787E-002,105.44402194116489,192.78530175439164,230.71476814690300,288.82751210958321,92.744672189236113,66.369000000000000,-8.1589999999999918,1.1098628543615690,-8.9605746671888369,0.19456259548541852
20220415163000,419.48977119584458,2.5224144971119906,1.2968990388727675,0,131.40661686928337,0,26.821886360325784,0,0.55620992936776747,0,236.16374151060944,4.8946226039377745,13.438577867624439,2.1951531516008136,1.7304270669159461,1.2123973373490831,1.0319624639118343,-690.48118376468312,-2.7517042385437725E-002,110.07027240970976,201.24356307780226,240.83714668094055,301.49952886906505,92.793948045355904,69.766000000000005,-7.9433333333333280,1.0146222244209659,-8.7535268910725677,0.22644825016144346
20220415170000,419.27618755088713,2.5790686456562772,1.1202190269029633,0,158.17269285421017,0,51.303431901582833,0,0.56520595955481090,0,233.76280915405636,4.7390047701305154,11.570950915564687,2.0347640690172843,1.7076319112636607,1.2595534887762023,0.95980906377291941,-461.62687228003000,-4.1158782429967178E-002,100.74638811879277,184.19652889363175,220.43620063577015,275.95996528483636,92.819379156684022,68.846666666666664,-7.4819999999999709,1.0835267663631956,-8.3143547125921486,0.31734927258208834
20220415173000,419.12681029032831,2.5321235889914178,1.7022303539982522,0,187.55879909439730,0,48.128825827380084,0,0.79451940403861299,1,241.56460982200031,5.4390630272602714,13.800649703806030,2.4967161227765793,1.8632871228874825,1.3964337473212329,1.1845043770920551,-731.81074222038444,-2.5962996856744910E-002,109.76603255773587,200.68731559606996,240.17146051289612,300.66616877986775,92.836937787559378,64.249333333333340,-6.8216666666666583,1.3083914708059385,-7.7721035785082222,0.29494227054340322
20220415180000,419.00684280121658,2.5423804842826807,1.2802608202947119,0,147.59304284660595,0,48.876712376778087,0,1.2321825044988293,0,233.26379790971035,5.0572881702762302,13.129175341511562,2.0523651039604984,1.8349236580242376,1.3186051994649735,1.0279001738261844,-607.89241237149668,-3.1255530770449354E-002,102.59443976814650,187.57535671449347,224.47979457267493,281.02206506352923,92.870189186631947,62.432333333333332,-6.3906666666666752,1.4211437552162534,-7.2097819298637660,0.24276239694719348
20220415183000,418.72454298773931,2.6147740493890628,1.8037455131306144,0,269.67107993423292,0,78.279141437271250,0,2.0787971133720453,0,238.15115550944728,5.3300720737891920,13.588841088441610,2.4526558742615112,2.1724880711610814,1.4587589432684684,1.2213817489545160,-558.23372343189533,-3.4035922952114529E-002,108.62985888723605,198.61002776238968,237.68547752269643,297.55401307361086,92.884803205078114,61.327333333333335,-5.7876666666666665,1.5319526760658670,-6.7677429283990023,0.43956681059049946
20220415190000,418.83236201641432,2.5589271662982704,1.5088224365063814,0,199.19379274896644,0,55.439042032830429,0,0.79195765194368573,1,233.52396039944443,5.5954433225711560,14.802963189805165,2.3676203145370662,1.9477221153273507,1.3750273712177346,1.1169488640630452,-578.13280486024291,-3.2864421185359018E-002,106.03090245315818,193.85830650625442,231.99888078564524,290.43506875493955,92.918060613064242,59.854666666666667,-5.7473333333333017,1.5951869664567739,-6.6888170776366564,0.37605147753175266
20220415193000,418.70832344150267,2.5513494486185597,1.7199337714699692,0,195.91976956983953,0,56.944669904124282,0,0.85558012923339066,0,234.69876850161072,5.1088242087630507,13.549505312910744,2.4243204689206359,1.8972624817168549,1.3703108303427218,1.1929814960028373,-716.25218200608970,-2.6526969798241339E-002,112.07444416181153,204.90782823844035,245.22233621184381,306.98926579623617,92.929750652777770,58.622000000000000,-5.5113333333333117,1.6739792163927527,-6.3906174867417462,0.34691003328467906
20220415200000,418.76037572009233,2.5870686847205406,1.5550746792995773,0,193.04793590146127,0,39.995111662954734,0,0.27480127969036555,1,237.10394093027148,4.0296300779258747,12.538994707023770,2.1804998993473892,1.6502630788521353,1.2421570200829184,1.1352424999356090,-626.45939228450538,-3.0329180524714977E-002,116.51574446953090,213.02794168103361,254.94003809671679,319.15467541164202,92.943109616346263,57.461666666666666,-5.0629999999999882,1.7805078330009820,-5.8650300635617327,0.29366853992980085
20220415203000,418.79400106976175,2.5627696104674311,1.4546557469511359,0,145.81387260016129,0,41.792397249547989,0,0.77068752752901726,1,235.44950581645168,4.9768746598662306,13.595324179559247,2.0259909792100026,1.8412095078993829,1.2985043513568360,1.0978114389937388,-750.10434283587904,-2.5329809354479572E-002,109.47687038761096,200.15863492553760,239.53876477719621,299.87410879717868,92.957179390842015,57.093333333333334,-5.1006666666666547,1.7908052501091809,-5.8491982116698864,0.21830058758249546
20220415210000,418.68455357011646,2.6224728989161319,1.4482092262448012,0,155.65858656365364,0,49.582116638528767,0,1.4912918565899147,0,251.72421554374100,4.1283133595409272,11.438027067686544,1.8912933260165223,1.5237790801124109,1.1862375872001307,1.0960465774908754,-699.43024452824000,-2.7164967698552048E-002,117.53866757868518,214.89817136916028,257.17822537007709,321.95662028492541,92.983339700295858,56.707333333333331,-4.7029999999999745,1.8621203289950286,-5.4475685487979604,0.24894302402131446
20220415213000,418.76739096551836,2.5946353421665047,1.1009034774916915,0,75.437843404220814,0,39.343120666020376,0,0.92410155069092625,0,251.70626145644945,4.1293221414023424,11.691396199018344,2.0386937890815853,1.5553497275902406,1.0505940976891417,0.95550888574738480,-956.49254407111130,-1.9864242662185800E-002,116.06324763459368,212.20063315030478,253.94996108298145,317.91521647725784,93.024680136067701,55.892000000000003,-4.6466666666666470,1.9052795655521910,-5.3066036936442060,0.14904027585626478
20220415220000,418.76262350730303,2.6179777488974620,0.99793316090378559,0,71.427833091780599,0,29.891887106870257,0,0.55494167464275501,1,244.68361291791615,4.0773231240657672,10.476216295705838,1.8022289352176004,1.8252162358403343,1.1047090059318638,0.90954717279772745,-871.61257286623606,-2.1798675915745282E-002,107.18074385138634,195.96058330532034,234.51476918514069,293.58466248492977,93.068768575737849,56.340666666666664,-4.6276666666666415,1.8886066572035263,-5.2472236701117367,0.15570723756639587
20220415223000,418.82018342500550,2.6166358400704275,0.98845220277200152,0,58.529820099748868,0,34.851280831701381,0,0.80392776058910853,0,264.81712475841073,3.4303321990755844,10.668155158543454,1.7445068747077070,1.2043191531254183,1.0196616820094608,0.90509213648273856,-1048.5309309023262,-1.8120590857199907E-002,113.82672846758732,208.11156281181388,249.05638825094465,311.78904398402460,93.118167803602432,56.048999999999999,-4.5586666666666815,1.9111513407313774,-5.1653234108819106,0.12802232542259095